Change the Weather History Date:

Sunday, June 30, 2013

  Actual Average Record
Temperature  
Mean Temperature 71 °F 72 °F  
Max Temperature 82 °F 87 °F 102 °F (1990)
Min Temperature 59 °F 56 °F 40 °F (1968)
Degree Days  
Heating Degree Days 0 1  
Month to date heating degree days 29 63  
Since 1 June heating degree days 29 62  
Since 1 July heating degree days 6084 6058  
Cooling Degree Days 6 7  
Month to date cooling degree days 221 133  
Year to date cooling degree days 263 155  
Since 1 June cooling degree days 221 133  
Growing Degree Days 21 (Base 50)    
Moisture  
Dew Point 52 °F    
Average Humidity 56    
Maximum Humidity 78    
Minimum Humidity 33    
Precipitation  
Precipitation T in 0.06 in 0.55 in (1945)
Month to date precipitation 0.75 1.98  
Year to date precipitation 5.99 7.51  
Snow  
Snow 0.00 in - - ()
Month to date snowfall 0  
Since 1 June snowfall 0  
Since 1 July snowfall 78.4  
Snow Depth 0.00 in    
Sea Level Pressure  
Sea Level Pressure 30.00 in    
Wind  
Wind Speed 9 mph (SSE)    
Max Wind Speed 21 mph    
Max Gust Speed 25 mph    
Visibility 10 miles    
Events Rain    
T = Trace of Precipitation, MM = Missing Value Source: NWS Daily Summary

Daily Weather History Graph

Daily Weather History Graph

Search for Another Location

Airport or City:

Trip Planner

Search our weather history database for the weather conditions in past years. The results will help you decide how hot, cold, wet, or windy it might be!

Date:

Astronomy

Jun. 30, 2013 Rise Set
Actual Time 5:33 AM MDT 8:30 PM MDT
Civil Twilight 5:01 AM MDT 9:03 PM MDT
Nautical Twilight 4:19 AM MDT 9:44 PM MDT
Astronomical Twilight 3:31 AM MDT 10:32 PM MDT
Moon 12:33 AM MDT 1:48 PM MDT
Length of Visible Light 16h 02m
Length of Day
14h 57m
Last Quarter, 45% of the Moon is Illuminated
Jun 30
Last Quarter
Jul 8
New
Jul 15
First Quarter
Jul 22
Full
Jul 29
Last Quarter

Hourly Weather History & Observations

Time (MDT) Temp. Dew Point Humidity Pressure Visibility Wind Dir Wind Speed Gust Speed Precip Events Conditions
12:53 AM 66.0 °F 51.1 °F 59% 29.97 in 10.0 mi ESE 9.2 mph - N/A   Mostly Cloudy
1:53 AM 64.0 °F 51.1 °F 63% 29.97 in 10.0 mi ESE 8.1 mph - N/A   Mostly Cloudy
2:53 AM 62.1 °F 51.1 °F 67% 29.98 in 10.0 mi East 8.1 mph - N/A   Mostly Cloudy
3:53 AM 63.0 °F 52.0 °F 67% 29.96 in 10.0 mi SSE 8.1 mph - N/A   Mostly Cloudy
4:53 AM 62.1 °F 52.0 °F 70% 29.96 in 10.0 mi WSW 10.4 mph - N/A   Mostly Cloudy
5:53 AM 60.1 °F 53.1 °F 78% 29.99 in 10.0 mi WNW 12.7 mph - N/A   Mostly Cloudy
6:53 AM 61.0 °F 54.0 °F 78% 29.98 in 9.0 mi SW 9.2 mph - N/A   Mostly Cloudy
7:53 AM 64.0 °F 54.0 °F 70% 29.99 in 8.0 mi SW 6.9 mph - N/A   Mostly Cloudy
8:53 AM 66.9 °F 54.0 °F 63% 30.00 in 10.0 mi West 11.5 mph - 0.00 in   Mostly Cloudy
9:53 AM 71.1 °F 54.0 °F 55% 30.00 in 10.0 mi WNW 8.1 mph - N/A   Mostly Cloudy
10:53 AM 69.1 °F 54.0 °F 58% 30.01 in 10.0 mi WNW 10.4 mph - 0.00 in Rain Light Rain
11:53 AM 73.0 °F 54.0 °F 51% 30.01 in 10.0 mi Variable 4.6 mph - 0.00 in   Mostly Cloudy
12:53 PM 75.9 °F 54.0 °F 46% 30.01 in 10.0 mi Calm Calm - N/A   Mostly Cloudy
1:53 PM 77.0 °F 53.1 °F 43% 30.00 in 10.0 mi Calm Calm - N/A   Mostly Cloudy
2:53 PM 79.0 °F 51.1 °F 38% 29.99 in 10.0 mi NE 3.5 mph - N/A   Mostly Cloudy
3:53 PM 80.1 °F 48.9 °F 34% 29.99 in 10.0 mi North 4.6 mph - N/A   Mostly Cloudy
4:53 PM 78.1 °F 54.0 °F 43% 29.98 in 10.0 mi WNW 6.9 mph - N/A   Mostly Cloudy
5:53 PM 78.1 °F 50.0 °F 37% 29.99 in 10.0 mi ESE 20.7 mph 24.2 mph N/A   Mostly Cloudy
6:53 PM 77.0 °F 50.0 °F 39% 30.00 in 10.0 mi SE 18.4 mph 25.3 mph N/A   Mostly Cloudy
7:53 PM 72.0 °F 52.0 °F 49% 30.02 in 10.0 mi SSE 16.1 mph - N/A   Mostly Cloudy
8:53 PM 66.9 °F 51.1 °F 57% 30.04 in 10.0 mi SSE 12.7 mph 24.2 mph N/A   Mostly Cloudy
9:53 PM 64.0 °F 53.1 °F 67% 30.06 in 10.0 mi SSE 10.4 mph - N/A   Scattered Clouds
10:53 PM 61.0 °F 51.1 °F 70% 30.07 in 10.0 mi SSE 13.8 mph - N/A   Partly Cloudy
11:53 PM 60.1 °F 51.1 °F 72% 30.06 in 10.0 mi SSE 10.4 mph - N/A   Clear